This is the latest recevied weather packets stored in our database for station/object DK4MDA-13. If no packets are shown the sender has not sent any weather packets the latest 10 day(s).
| Time | Temp. | Humidity | Pressure | Rain* | Wind** | Luminosity | Snow |
|---|---|---|---|---|---|---|---|
| 1777631536 | 22.78° C | 40% | 1029.1 hPa | 0 mm | - | - | - |
| 1777631236 | 22.22° C | 41% | 1029.1 hPa | 0 mm | - | - | - |
| 1777630936 | 21.67° C | 38% | 1029.1 hPa | 0 mm | - | - | - |
| 1777630636 | 21.11° C | 42% | 1029.2 hPa | 0 mm | - | - | - |
| 1777630336 | 21.11° C | 39% | 1029.2 hPa | 0 mm | - | - | - |
| 1777630036 | 21.67° C | 37% | 1029.3 hPa | 0 mm | - | - | - |
| 1777629736 | 22.22° C | 37% | 1029.3 hPa | 0 mm | - | - | - |
| 1777629436 | 22.22° C | 39% | 1029.3 hPa | 0 mm | - | - | - |
| 1777629136 | 21.67° C | 40% | 1029.5 hPa | 0 mm | - | - | - |
| 1777628836 | 21.67° C | 38% | 1029.6 hPa | 0 mm | - | - | - |
| 1777628536 | 21.11° C | 42% | 1029.6 hPa | 0 mm | - | - | - |
| 1777628236 | 21.11° C | 42% | 1029.7 hPa | 0 mm | - | - | - |
| 1777627936 | 21.11° C | 41% | 1029.7 hPa | 0 mm | - | - | - |
| 1777627636 | 21.11° C | 40% | 1029.8 hPa | 0 mm | - | - | - |
| 1777627336 | 20.56° C | 44% | 1029.8 hPa | 0 mm | - | - | - |
| 1777627036 | 20.56° C | 41% | 1029.8 hPa | 0 mm | - | - | - |
| 1777626736 | 20.56° C | 42% | 1029.9 hPa | 0 mm | - | - | - |
| 1777626436 | 20.56° C | 41% | 1029.9 hPa | 0 mm | - | - | - |
| 1777626136 | 20° C | 42% | 1030 hPa | 0 mm | - | - | - |
| 1777625836 | 20° C | 41% | 1030.1 hPa | 0 mm | - | - | - |
| 1777625536 | 20° C | 43% | 1030.1 hPa | 0 mm | - | - | - |
| 1777625236 | 20° C | 43% | 1030.1 hPa | 0 mm | - | - | - |
| 1777624936 | 20° C | 44% | 1030.1 hPa | 0 mm | - | - | - |
| 1777624636 | 19.44° C | 46% | 1030.2 hPa | 0 mm | - | - | - |
| 1777624336 | 19.44° C | 48% | 1030.1 hPa | 0 mm | - | - | - |
* Rain latest hour (hover to see other rain measurements)
** Current wind speed in m/s (hover to see current wind gust speed)